This is the latest recevied weather packets stored in our database for station/object N4QD-13. If no packets are shown the sender has not sent any weather packets the latest 10 day(s).
| Time | Temp. | Humidity | Pressure | Rain* | Wind** | Luminosity | Snow |
|---|---|---|---|---|---|---|---|
| 1777832909 | 15.56° C | 41% | 1017.6 hPa | 0 mm | - | 751 W/m² | - |
| 1777832609 | 16.11° C | 38% | 1017.6 hPa | 0 mm | - | 750 W/m² | - |
| 1777832305 | 15.56° C | 37% | 1017.7 hPa | 0 mm | - | 749 W/m² | - |
| 1777832002 | 15.56° C | 36% | 1017.6 hPa | 0 mm | - | 714 W/m² | - |
| 1777831698 | 15° C | 39% | 1017.7 hPa | 0 mm | - | 684 W/m² | - |
| 1777831397 | 15.56° C | 41% | 1017.7 hPa | 0 mm | - | 705 W/m² | - |
| 1777831093 | 15.56° C | 38% | 1017.7 hPa | 0 mm | - | 746 W/m² | - |
| 1777830791 | 15° C | 39% | 1017.9 hPa | 0 mm | - | 747 W/m² | - |
| 1777830486 | 14.44° C | 40% | 1017.8 hPa | 0 mm | - | 747 W/m² | - |
| 1777830185 | 13.89° C | 41% | 1017.8 hPa | 0 mm | - | 730 W/m² | - |
| 1777829880 | 13.89° C | 38% | 1017.7 hPa | 0 mm | - | 735 W/m² | - |
| 1777829575 | 14.44° C | 40% | 1017.9 hPa | 0 mm | - | 729 W/m² | - |
| 1777829273 | 14.44° C | 40% | 1017.8 hPa | 0 mm | - | 719 W/m² | - |
| 1777828970 | 14.44° C | 41% | 1017.8 hPa | 0 mm | - | 730 W/m² | - |
| 1777828666 | 15° C | 40% | 1017.9 hPa | 0 mm | - | 741 W/m² | - |
| 1777828364 | 13.89° C | 40% | 1018.3 hPa | 0 mm | - | 751 W/m² | - |
| 1777828061 | 13.89° C | 42% | 1018.5 hPa | 0 mm | - | 740 W/m² | - |
| 1777827757 | 13.33° C | 42% | 1018.4 hPa | 0 mm | - | 737 W/m² | - |
| 1777827454 | 12.78° C | 45% | 1018.4 hPa | 0 mm | - | 736 W/m² | - |
| 1777827151 | 13.33° C | 43% | 1018.3 hPa | 0 mm | - | 713 W/m² | - |
| 1777826847 | 13.33° C | 41% | 1018.4 hPa | 0 mm | - | 730 W/m² | - |
| 1777826545 | 13.33° C | 46% | 1018.4 hPa | 0 mm | - | 770 W/m² | - |
| 1777826241 | 13.33° C | 44% | 1018.8 hPa | 0 mm | - | 766 W/m² | - |
| 1777825939 | 13.89° C | 40% | 1018.6 hPa | 0 mm | - | 742 W/m² | - |
| 1777825636 | 13.89° C | 45% | 1018.6 hPa | 0 mm | - | 733 W/m² | - |
* Rain latest hour (hover to see other rain measurements)
** Current wind speed in m/s (hover to see current wind gust speed)